Location: Home
(42.5358°N, 72.7383°W)
Time: 20:48:16
(UTC-05:00)

Vanguard 2 - Pass Details

Date: 30 November 2021
Orbit: 553 x 2936 km, 32.9° (Epoch: 20 January)

Event Time Altitude Azimuth Distance (km) Brightness Sun altitude
Rises 18:10:50 0° 267° (W) 4,180 12.8 -20.1°
Reaches altitude 10° 18:13:29 10° 259° (W) 3,490 12.1 -20.5°
Maximum altitude 18:21:55 38° 195° (SSW) 2,672 10.4 -22.1°
Drops below altitude 10° 18:34:43 10° 135° (SE) 5,269 11.4 -24.4°
Enters shadow 18:37:22 - 131° (SE) 5,928 11.7 -24.9°
Sets 18:39:50 0° 129° (SE) 6,532 - -25.3°
